Location: San Antonio
(29.4240°N, 98.4930°W)
Time: 20:46:40
(UTC-05:00)

Tiangong - Pass Details

Date: 18 June 2024
Orbit: 374 x 377 km, 41.5° (Epoch: 18 July)

Event Time Altitude Azimuth Distance (km) Brightness Sun altitude
Rises 21:28:48 0° 305° (NW) 2,248 4.1 -10.6°
Reaches altitude 10° 21:30:53 10° 309° (NW) 1,392 2.3 -11.0°
Maximum altitude 21:34:00 60° 30° (NNE) 436 -1.9 -11.5°
Enters shadow 21:35:59 20° 107° (ESE) 954 -0.7 -11.9°
